This demonstration page uses our WeatherBlox Daily Observations layout. Learn more.

Left ArrowRight Arrow

Hourly Observations for June 13, 2021

Temp ( °F °C ) Dew Point ( °F °C ) Humidity (%) Winds ( mph kmh ) Pressure ( in mb ) Visibility ( mi km ) Precip ( " mm )
12:56 am 00:56 Clear 61 16.1 51 10.6 70 70 E 7 11 30.04 1017 10 16 0.00 0.00
1:56 am 01:56 Clear 62 16.7 52 11.1 70 70 E 3 6 30.04 1017 10 16 0.00 0.00
2:56 am 02:56 Clear 59 15 51 10.6 75 75 E 3 6 30.04 1017 10 16 0.00 0.00
3:56 am 03:56 Clear 63 17.2 52 11.1 68 68 S 3 6 30.05 1018 10 16 0.00 0.00
4:56 am 04:56 Clear 60 15.6 52 11.1 75 75 SSE 5 7 30.07 1018 10 16 0.00 0.00
5:56 am 05:56 Clear 59 15 52 11.1 78 78 S 8 13 30.07 1018 10 16 0.00 0.00
6:56 am 06:56 Sunny 61 16.1 53 11.7 75 75 Calm 30.07 1018 10 16 0.00 0.00
7:56 am 07:56 Sunny 67 19.4 56 13.3 68 68 S 5 7 30.09 1019 10 16 0.00 0.00
8:56 am 08:56 Sunny 74 23.3 57 13.9 56 56 S 9 15 30.10 1019 10 16 0.00 0.00
9:56 am 09:56 Sunny 77 25 58 14.4 52 52 S 12 19 30.11 1020 10 16 0.00 0.00
10:56 am 10:56 Sunny 80 26.7 58 14.4 47 47 S 10 17 30.10 1019 10 16 0.00 0.00
11:56 am 11:56 Sunny 83 28.3 56 13.3 40 40 S 13 20 30.10 1019 10 16 0.00 0.00
12:56 pm 12:56 Sunny 85 29.4 55 12.8 36 36 SE 8 13 30.09 1019 10 16 0.00 0.00
1:56 pm 13:56 Sunny 88 31.1 56 13.3 34 34 S 8 13 30.06 1018 10 16 0.00 0.00
2:56 pm 14:56 Sunny 89 31.7 53 11.7 29 29 SSE 8 13 30.04 1017 10 16 0.00 0.00
3:56 pm 15:56 Sunny 91 32.8 51 10.6 26 26 SE 9 15 30.02 1017 10 16 0.00 0.00
4:56 pm 16:56 Sunny 91 32.8 51 10.6 26 26 SE 9 15 30.01 1016 10 16 0.00 0.00
5:56 pm 17:56 Sunny 90 32.2 51 10.6 26 26 SE 13 20 30.01 1016 10 16 0.00 0.00
6:56 pm 18:56 Sunny 89 31.7 51 10.6 27 27 SE 13 20 30.01 1016 10 16 0.00 0.00
7:56 pm 19:56 Sunny 85 29.4 54 12.2 35 35 SE 9 15 29.99 1016 10 16 0.00 0.00
8:56 pm 20:56 Sunny 78 25.6 54 12.2 43 43 SE 8 13 30.00 1016 10 16 0.00 0.00
9:56 pm 21:56 Clear 74 23.3 54 12.2 50 50 SSE 8 13 30.00 1016 10 16 0.00 0.00
10:56 pm 22:56 Clear 71 21.7 54 12.2 55 55 SSE 5 7 30.03 1017 9 14 0.00 0.00
11:56 pm 23:56 Clear 72 22.2 54 12.2 53 53 S 3 6 30.05 1018 10 16 0.00 0.00

Powered by AerisWeather